x

9439040 - Astoria, Or (asto3) Weather Station

2:30 - Sat 20th Sep 2014 All times are PDT. -7 hours from GMT.

  • Wind
    8mph, 13mph gusts
  • Sea Temp 64°f
  • Luft Temp 78°f
  • Sea Pressure 1012.6mb
  • 9439040 - Astoria, Or
  • 9439040 - Astoria, Or

More Historic Weather Station data

Upgrade to MSW Pro to gain access to the past 30 days of data for over 8000 Wavebouys and Weather Stations around the globe.

Join Pro

Comparision Forecast

View Surf forecast
   
Sa 09/20 2:30 8 13 mph 1012.6mb 64f 78f
2:24 9 11 mph 1012.7mb 64f 78f
2:18 8 13 mph 1012.8mb 64f 78f
2:12 6 13 mph 1012.9mb 64f 78f
2:06 10 14 mph 1013mb 64f 77f
2:00 9 14 mph 1013mb 64f 77f
1:54 6 9 mph 1013.2mb 64f 76f
1:48 7 11 mph 1013.3mb 64f 76f
1:42 5 8 mph 1013.4mb 64f 76f
1:36 5 6 mph 1013.5mb 64f 75f
1:30 3 7 mph 1013.5mb 64f 75f
1:24 2 6 mph 1013.6mb 64f 76f
1:18 3 7 mph 1013.7mb 64f 75f
1:12 2 5 mph 1013.8mb 64f 75f
1:06 2 7 mph 1013.8mb 64f 75f
1:00 3 6 mph 1013.9mb 64f 74f
12:54 3 5 mph 1014mb 64f 74f
12:48 2 6 mph 1014mb 64f 74f
12:42 2 6 mph 1014.1mb 64f 73f
12:36 2 7 mph 1014.2mb 64f 73f
12:30 5 7 mph 1014.3mb 64f 72f
12:24 3 6 mph 1014.4mb 64f 72f
12:18 5 7 mph 1014.5mb 64f 72f
12:12 5 8 mph 1014.5mb 64f 71f
12:06 3 6 mph 1014.6mb 64f 71f
12:00 2 3 mph 1014.8mb 64f 71f
11:54 3 6 mph 1014.9mb 64f 70f
11:48 2 5 mph 1015mb 64f 70f
11:42 3 7 mph 1015.1mb 65f 69f
11:36 5 11 mph 1015.1mb 65f 68f
11:30 7 13 mph 1015.2mb 65f 68f
11:24 10 14 mph 1015.2mb 65f 68f
11:18 8 10 mph 1015.2mb 65f 68f
11:12 7 11 mph 1015.4mb 65f 67f
11:06 7 9 mph 1015.4mb 65f 67f
11:00 5 9 mph 1015.5mb 65f 67f
10:54 5 7 mph 1015.6mb 65f 67f
10:48 2 8 mph 1015.7mb 65f 67f
10:42 5 8 mph 1015.7mb 65f 66f
10:36 6 8 mph 1015.8mb 65f 66f
10:30 3 7 mph 1015.9mb 65f 66f
10:24 5 6 mph 1015.9mb 65f 65f
10:18 2 6 mph 1016mb 66f 65f
10:12 1 7 mph 1016.1mb 66f 65f
10:06 3 6 mph 1016.1mb 66f 65f
10:00 2 5 mph 1016.2mb 66f 65f
9:54 3 6 mph 1016.2mb 65f 64f
9:48 3 6 mph 1016.2mb 65f 64f
9:42 5 6 mph 1016.3mb 65f 64f
9:36 3 6 mph 1016.3mb 65f 63f
9:30 5 7 mph 1016.3mb 65f 63f
9:24 5 8 mph 1016.4mb 65f 63f
9:18 5 9 mph 1016.4mb 65f 62f
9:12 6 9 mph 1016.5mb 65f 62f
9:06 5 8 mph 1016.5mb 65f 62f
9:00 6 9 mph 1016.5mb 65f 62f
8:54 6 10 mph 1016.6mb 65f 62f
8:48 8 10 mph 1016.6mb 65f 62f
8:42 6 10 mph 1016.6mb 64f 61f
8:36 5 8 mph 1016.7mb 64f 61f
8:30 3 8 mph 1016.7mb 64f 61f
8:24 5 8 mph 1016.6mb 64f 61f
8:18 6 8 mph 1016.7mb 64f 61f
8:12 2 5 mph 1016.8mb 64f 60f
8:06 2 5 mph 1016.9mb 64f 60f
8:00 3 6 mph 1016.9mb 64f 60f
7:54 5 6 mph 1016.9mb 64f 60f
7:48 2 5 mph 1016.9mb 64f 60f
7:42 2 5 mph 1016.9mb 64f 60f
7:36 2 3 mph 1016.9mb 64f 60f
7:30 2 5 mph 1017mb 64f 60f
7:24 1 2 mph 1017.1mb 64f 60f
7:18 1 3 mph 1017mb 64f 60f
7:12 1 5 mph 1017.1mb 64f 60f
7:06 3 5 mph 1017.1mb 64f 60f
7:00 3 6 mph 1017.1mb 64f 60f
6:54 1 5 mph 1017.1mb 64f 59f
6:48  -  3 mph 1017.1mb 64f 60f
6:42  -  2 mph 1017.1mb 64f 60f
6:36 1 5 mph 1017.1mb 64f 60f
6:30 5 6 mph 1017.1mb 64f 60f
6:24 5 7 mph 1017.2mb 64f 59f
6:18 5 6 mph 1017.2mb 64f 59f
6:12 2 3 mph 1017.2mb 64f 60f
6:06 2 3 mph 1017.2mb 64f 60f
6:00 3 5 mph 1017.3mb 64f 60f
5:54 3 6 mph 1017.3mb 64f 60f
5:48 3 5 mph 1017.3mb 64f 60f
5:42  -  5 mph 1017.4mb 64f 60f
5:36 3 6 mph 1017.4mb 64f 60f
5:30 5 7 mph 1017.4mb 64f 59f
5:24 3 7 mph 1017.4mb 64f 59f
5:18 5 8 mph 1017.4mb 64f 60f
5:12 3 7 mph 1017.4mb 64f 60f
5:06 5 7 mph 1017.5mb 64f 60f
5:00 5 6 mph 1017.5mb 64f 60f
4:54 3 6 mph 1017.5mb 64f 60f
4:48 2 6 mph 1017.5mb 64f 60f
4:42 1 3 mph 1017.6mb 64f 60f
4:36 2 5 mph 1017.7mb 64f 60f
4:30 2 5 mph 1017.7mb 64f 60f
4:24 2 5 mph 1017.8mb 64f 60f
4:18 3
mph
1017.8mb 64f 61f
4:12 1 2 mph 1017.8mb 64f 61f
4:06  -  1 mph 1017.8mb 64f 61f
4:00  -  2 mph 1017.9mb 64f 61f
3:54 2 3 mph 1018mb 64f 61f
3:48  -  1 mph 1018mb 64f 61f
3:42  -  2 mph 1018mb 64f 61f
3:36 3 5 mph 1018.1mb 64f 61f
3:30 2 5 mph 1018.2mb 64f 61f
3:24  -  1 mph 1018.2mb 64f 61f
3:18  -  1 mph 1018.3mb 64f 61f
3:12  -  1 mph 1018.4mb 64f 61f
3:06  -  1 mph 1018.4mb 64f 61f
3:00  -  1 mph 1018.5mb 63f 60f
2:54  -  2 mph 1018.5mb 64f 60f
2:48 2 3 mph 1018.6mb 64f 61f
2:42 3 5 mph 1018.6mb 64f 61f
2:36 2 5 mph 1018.6mb 64f 61f
2:30 3 5 mph 1018.7mb 64f 61f
2:24 3 5 mph 1018.7mb 64f 61f
2:18 1 5 mph 1018.7mb 64f 60f
2:12 5 6 mph 1018.8mb 64f 60f
2:06 1 5 mph 1018.9mb 64f 61f
2:00 1 2 mph 1018.9mb 64f 60f
1:54  -  3 mph 1018.9mb 64f 60f
1:48 1
mph
1018.9mb 64f 60f
1:42 1 2 mph 1018.9mb 64f 60f
1:36 2
mph
1018.9mb 65f 61f
1:30 2 3 mph 1018.9mb 65f 61f
1:24  -  1 mph 1018.9mb 65f 61f
1:18  -  3 mph 1018.9mb 65f 61f
1:12 1 2 mph 1018.9mb 65f 61f
1:06 1 2 mph 1019mb 65f 61f
1:00 2 3 mph 1018.9mb 65f 61f
12:54 3 6 mph 1018.8mb 64f 61f
12:48 3 5 mph 1018.8mb 64f 61f
12:42 3 7 mph 1018.9mb 64f 61f
12:36 5 8 mph 1019mb 63f 62f
12:30 5 8 mph 1019mb 62f 62f
12:24 5 8 mph 1018.9mb 64f 62f
12:18 6 8 mph 1019mb 64f 62f
12:12 5 6 mph 1019.1mb 64f 62f
12:06 2 5 mph 1019.2mb 64f 62f
12:00 3 5 mph 1019.3mb 64f 62f
Fr 09/19 11:54 6 7 mph 1019.3mb 64f 62f
11:48 7 8 mph 1019.3mb 64f 62f
11:42 2 7 mph 1019.4mb 64f 62f
11:36 3 6 mph 1019.4mb 64f 62f
11:30 5 7 mph 1019.4mb 64f 62f
11:24 5 7 mph 1019.4mb 65f 62f
11:18 2 6 mph 1019.4mb 65f 62f
11:12 6 8 mph 1019.5mb 65f 62f
11:06 8 10 mph 1019.5mb 65f 62f
11:00 9 11 mph 1019.5mb 65f 62f
10:54 9 13 mph 1019.5mb 65f 62f
10:48 10 13 mph 1019.5mb 65f 62f
10:42 10 11 mph 1019.5mb 65f 62f
10:36 10 13 mph 1019.5mb 65f 62f
10:30 10 14 mph 1019.5mb 66f 62f
10:24 9 13 mph 1019.5mb 65f 62f
10:18  -  mph - 66f -
10:12  -  mph - 66f -
10:06  -  mph - 66f -
10:00  -  mph 1019.6mb - -
9:54  -  mph 1019.6mb - -
9:48  -  mph 1019.6mb - 62f
9:42  -  mph 1019.6mb - 62f
9:36  -  mph 1019.6mb - 63f
9:30 11 14 mph 1019.5mb 66f -
9:24 9 11 mph 1019.5mb 66f 63f
9:18  -  mph 1019.4mb 66f 63f
9:12  -  mph 1019.5mb - -
9:06  -  mph 1019.4mb - -
9:00  -  mph 1019.3mb - -
8:54  -  mph 1019.3mb - -
8:48 11 13 mph 1019.3mb 66f 64f
8:42 9 13 mph 1019.2mb 66f 64f
8:36 9 11 mph 1019.2mb 66f 64f
8:30 11 15 mph 1019.1mb 66f 64f
8:24 11 15 mph 1019.1mb 66f 64f
8:18 10 15 mph 1019.1mb 66f 65f
8:12 11 14 mph 1019.1mb 66f 65f
8:06 13 15 mph 1019.1mb 66f 65f
8:00 13 15 mph 1019mb 65f 65f
7:54 11 14 mph 1019mb 65f 65f
7:48 11 14 mph 1018.9mb 65f 65f
7:42 10 13 mph 1019mb 65f 65f
7:36 6 8 mph 1019mb 65f 65f
7:30 6 8 mph 1019mb 65f 65f
7:24 7 8 mph 1019mb 65f 65f
7:18 5 6 mph 1019mb 65f 66f
7:12 5 6 mph 1018.9mb 65f 66f
7:06 5 7 mph 1018.8mb 65f 66f
7:00 7 9 mph 1018.9mb 65f 66f
6:54 8 9 mph 1018.9mb 64f 66f
6:48 9 10 mph 1019mb 64f 67f
6:42 9 10 mph 1019mb 64f 67f
6:36 6 8 mph 1019.1mb 64f 67f
6:30 6 8 mph 1019.1mb 64f 67f
6:24 7 8 mph 1019.1mb 64f 66f
6:18 8 10 mph 1019.1mb 64f 66f
6:12 9 11 mph 1019.2mb 64f 66f
6:06 9 11 mph 1019.2mb 65f 66f
6:00 9 10 mph 1019.2mb 65f 66f
5:54 8 10 mph 1019.2mb 65f 66f
5:48 8 10 mph 1019.2mb 65f 65f
5:42 8 10 mph 1019.2mb 65f 66f
5:36 9 11 mph 1019.2mb 66f 66f
5:30 9 11 mph 1019.3mb 65f 66f
5:24 10 11 mph 1019.3mb 65f 65f
5:18 10 13 mph 1019.4mb 66f 65f
5:12 11 13 mph 1019.4mb 66f 65f
5:06 10 13 mph 1019.5mb 65f 65f
5:00 10 14 mph 1019.5mb 64f 65f
4:54 11 14 mph 1019.6mb 64f 65f
4:48 11 14 mph 1019.6mb 64f 65f
4:42 11 14 mph 1019.6mb 65f 65f
4:36 10 13 mph 1019.7mb 65f 65f
4:30 9 13 mph 1019.6mb 65f 65f
4:24 11 14 mph 1019.7mb 65f 65f
4:18 11 13 mph 1019.7mb 65f 64f
4:12 10 11 mph 1019.7mb 64f 65f
4:06 9 13 mph 1019.7mb 63f 65f
4:00 10 13 mph 1019.7mb 63f 65f
3:54 11 13 mph 1019.8mb 64f 65f
3:48 11 13 mph 1019.9mb 64f 65f
3:42 10 13 mph 1019.9mb 64f 65f
3:36 10 14 mph 1019.9mb 63f 65f
3:30 10 14 mph 1020mb 63f 65f
3:24 13 14 mph 1020mb 63f 65f
3:18 11 14 mph 1020.1mb 63f 65f
3:12 10 14 mph 1020.1mb 63f 65f
3:06 10 14 mph 1020.2mb 62f 65f
3:00 11 13 mph 1020.3mb 63f 65f
2:54 10 13 mph 1020.4mb 63f 65f
2:48 10 13 mph 1020.4mb 63f 65f
2:42 8 11 mph 1020.4mb 64f 65f
2:36 9 11 mph 1020.4mb 64f 65f
2:30 8 10 mph 1020.4mb 64f 65f
2:24 9 10 mph 1020.4mb 64f 65f
2:18 9 10 mph 1020.5mb 64f 65f
2:12 8 10 mph 1020.5mb 64f 65f
2:06 9 10 mph 1020.5mb 64f 65f
2:00 8 10 mph 1020.6mb 64f 65f
1:54 9 10 mph 1020.6mb 64f 65f
1:48 8 9 mph 1020.6mb 64f 65f
1:42 9 10 mph 1020.7mb 65f 65f
1:36 9 11 mph 1020.7mb 65f 65f
1:30 9 11 mph 1020.8mb 65f 65f
1:24 10 11 mph 1020.8mb 65f 65f
1:18 8 10 mph 1020.7mb 65f 65f
1:12 8 9 mph 1020.7mb 65f 66f
1:06 7 8 mph 1020.7mb 65f 66f
1:00 7 8 mph 1020.7mb 65f 66f
12:54 6 7 mph 1020.6mb 64f 66f
12:48 5 6 mph 1020.6mb 64f 66f
12:42 6
mph
1020.5mb 64f 65f
12:36 5 6 mph 1020.5mb 64f 66f
12:30 5 6 mph 1020.5mb 64f 65f
12:24 6 7 mph 1020.5mb 64f 65f
12:18 5 7 mph 1020.5mb 64f 65f
12:12 5 7 mph 1020.5mb 64f 65f
12:06 6 7 mph 1020.5mb 64f 65f
12:00 6 7 mph 1020.5mb 64f 65f
11:54 6 7 mph 1020.4mb 65f 65f
11:48 6
mph
1020.4mb 65f 65f
11:42 5 6 mph 1020.4mb 65f 65f
11:36 6 7 mph 1020.4mb 65f 64f
11:30 6 8 mph 1020.4mb 65f 64f
11:24 6 7 mph 1020.5mb 65f 64f
11:18 7 8 mph 1020.4mb 65f 64f
11:12 5 7 mph 1020.4mb 65f 65f
11:06 6 7 mph 1020.4mb 65f 64f
11:00 6
mph
1020.3mb 65f 64f
10:54 5 6 mph 1020.3mb 65f 64f
10:48 6
mph
1020.3mb 65f 64f
10:42 6
mph
1020.3mb 65f 64f
10:36 5 6 mph 1020.3mb 65f 64f
10:30 3 6 mph 1020.3mb 66f 64f
10:24 6 7 mph 1020.3mb 66f 64f
10:18 5 6 mph 1020.3mb 66f 64f
10:12 5 6 mph 1020.2mb 66f 64f
10:06 3 5 mph 1020.2mb 66f 65f
10:00 2 5 mph 1020.2mb 66f 65f
9:54 2 5 mph 1020.1mb 66f 65f
9:48 3 6 mph 1020.1mb 66f 64f
9:42 3 7 mph 1020mb 66f 64f
9:36 3 5 mph 1019.9mb 66f 64f
9:30 5 7 mph 1020mb 65f 64f
9:24 3 5 mph 1020mb 65f 64f
9:18 3
mph
1019.9mb 65f 64f
9:12 2 6 mph 1019.8mb 65f 64f
9:06 5
mph
1019.7mb 65f 64f
9:00 2 3 mph 1019.8mb 65f 64f
8:54 2 6 mph 1019.7mb 65f 63f
8:48 5 9 mph 1019.6mb 65f 63f
8:42 5 6 mph 1019.6mb 65f 63f
8:36 5 8 mph 1019.5mb 65f 63f
8:30 5 6 mph 1019.5mb 65f 63f
8:24 6 7 mph 1019.4mb 65f 62f
8:18 2 5 mph 1019.4mb 65f 62f
8:12 3 5 mph 1019.4mb 65f 62f
8:06 5 6 mph 1019.4mb 64f 62f
8:00 5 6 mph 1019.4mb 64f 62f
7:54 5 6 mph 1019.4mb 64f 62f
7:48 1 3 mph 1019.3mb 64f 62f
7:42 3 5 mph 1019.2mb 64f 62f
7:36 3
mph
1019.1mb 64f 62f
7:30 3 5 mph 1019mb 64f 62f
7:24 2 3 mph 1018.9mb 64f 62f
7:18 3 5 mph 1018.8mb 64f 61f
7:12 3 5 mph 1018.7mb 64f 62f
7:06 3 6 mph 1018.6mb 64f 62f
7:00 3 6 mph 1018.6mb 64f 62f
6:54 2 6 mph 1018.4mb 64f 62f
6:48 2 5 mph 1018.3mb 64f 62f
6:42 1 2 mph 1018.3mb 64f 62f
6:36  -  3 mph 1018.2mb 64f 62f
6:30 2 7 mph 1018.2mb 64f 62f
6:24 6 7 mph 1018.1mb 64f 62f
6:18 5 7 mph 1018.3mb 64f 62f
6:12 3 5 mph 1018.3mb 64f 62f
6:06 3 5 mph 1018.2mb 64f 62f
6:00 2 5 mph 1018.2mb 64f 62f
5:54 5 6 mph 1018.2mb 64f 62f
5:48 5 6 mph 1018.2mb 64f 62f
5:42 5 6 mph 1018.1mb 64f 62f
5:36 5 6 mph 1018.1mb 64f 62f
5:30 3 5 mph 1018mb 64f 62f
5:24 3 6 mph 1017.9mb 64f 62f
5:18 5 6 mph 1017.9mb 64f 62f
5:12 2 6 mph 1017.9mb 64f 62f
5:06 3 6 mph 1017.8mb 64f 62f
5:00 5 7 mph 1017.8mb 64f 62f
4:54 5 6 mph 1017.8mb 64f 62f
4:48 6 7 mph 1017.8mb 64f 63f
4:42 6 7 mph 1017.8mb 64f 63f
4:36 6 7 mph 1017.8mb 64f 63f
4:30 3 6 mph 1017.7mb 64f 63f
4:24 5 6 mph 1017.6mb 64f 62f
4:18 5 6 mph 1017.6mb 64f 62f
4:12 6 8 mph 1017.6mb 64f 63f
4:06 7 9 mph 1017.5mb 64f 62f
4:00 5 7 mph 1017.5mb 64f 62f
3:54 6 7 mph 1017.5mb 64f 62f
3:48 3 5 mph 1017.6mb 64f 62f
3:42 2 3 mph 1017.6mb 64f 62f
3:36 2 3 mph 1017.5mb 64f 62f
3:30 2 6 mph 1017.5mb 64f 63f
3:24 3 5 mph 1017.5mb 64f 63f
3:18 3 5 mph 1017.5mb 64f 63f
3:12 3 6 mph 1017.4mb 64f 63f
3:06 5 6 mph 1017.3mb 64f 63f
3:00 3 6 mph 1017.3mb 64f 63f
2:54 5 6 mph 1017.3mb 64f 63f
2:48 3 5 mph 1017.2mb 64f 63f
2:42 3 5 mph 1017.1mb 64f 63f
2:36 2 6 mph 1017.1mb 64f 63f
2:30 2 5 mph 1017mb 64f 63f
2:24 3 5 mph 1017.1mb 64f 63f
2:18 3 6 mph 1017mb 63f 63f
2:12 3 6 mph 1017.1mb 63f 63f
2:06 5 6 mph 1017.2mb 63f 63f
2:00 6 7 mph 1017.2mb 63f 63f
1:54 5 6 mph 1017.1mb 63f 64f
1:48 5 6 mph 1017.1mb 63f 64f
1:42 6 7 mph 1017.1mb 63f 64f
1:36 5 6 mph 1017.1mb 63f 64f
1:30 5 6 mph 1017.1mb 63f 64f
1:24 6 8 mph 1017mb 63f 64f
1:18 7 9 mph 1016.9mb 63f 64f
1:12 3 6 mph 1016.9mb 63f 64f
1:06 6 8 mph 1017mb 63f 64f
1:00 3 6 mph 1017.1mb 63f 64f
12:54 5 6 mph 1017.1mb 63f 64f
12:48 2 6 mph 1017.1mb 64f 64f
12:42 5 6 mph 1017.1mb 64f 64f
12:36 2 5 mph 1017mb 64f 64f
12:30 3 5 mph 1017mb 64f 64f
12:24 2 3 mph 1017mb 64f 64f
12:18 2 5 mph 1016.9mb 64f 64f
12:12 3 6 mph 1016.8mb 64f 64f
12:06 2 5 mph 1016.7mb 64f 64f
12:00 3 7 mph 1016.7mb 64f 64f
Do 09/18 11:54 2 5 mph 1016.6mb 64f 64f
11:48 5 7 mph 1016.5mb 64f 64f
11:42 3 5 mph 1016.4mb 64f 64f
11:36 2 5 mph 1016.3mb 63f 64f
11:30 5 7 mph 1016.4mb 63f 64f
11:24 6
mph
1016.5mb 63f 64f
11:18 3 5 mph 1016.5mb 63f 64f
11:12 5 6 mph 1016.5mb 63f 64f
11:06 5 6 mph 1016.6mb 63f 64f
11:00 5 6 mph 1016.7mb 63f 64f
10:54 3 6 mph 1016.8mb 63f 64f
10:48 5 8 mph 1016.6mb 63f 64f
10:42 6 8 mph 1016.5mb 64f 64f
10:36 5 7 mph 1016.2mb 64f 64f
10:30 3 7 mph 1016.1mb 64f 64f
10:24 5 7 mph 1016.1mb 64f 64f
10:18 5 6 mph 1016.1mb 64f 63f
10:12 6
mph
1016.1mb 64f 63f
10:06 3 5 mph 1016.1mb 64f 63f
10:00 2 3 mph 1015.9mb 64f 63f
9:54 1 3 mph 1015.9mb 64f 63f
9:48 2 3 mph 1015.7mb 65f 63f
9:42 1 6 mph 1015.8mb 65f 63f
9:36 5 7 mph 1015.6mb 65f 64f
9:30 3 5 mph 1015.7mb 65f 63f
9:24 3 5 mph 1015.6mb 65f 63f
9:18 6
mph
1015.6mb 65f 63f
9:12 5 6 mph 1015.7mb 65f 63f
9:06 6 7 mph 1015.7mb 65f 63f
9:00 6 7 mph 1015.7mb 65f 64f
8:54 5 6 mph 1015.6mb 65f 64f
8:48  -  mph 1015.5mb 65f 64f
8:42  -  mph 1015.4mb 65f 63f
8:36  -  mph 1015.3mb 65f 63f
8:30 5 6 mph 1015.3mb 65f 63f
8:24 3 5 mph 1015.2mb 65f 63f
8:18 2 5 mph 1015.1mb 65f 63f
8:12 3 7 mph 1015mb 66f 63f
8:06 6 8 mph 1015mb 66f 64f
8:00 7 9 mph 1015mb 66f 63f
7:54 6 8 mph 1015mb 66f 64f
7:48 6 8 mph 1015mb 66f 64f
7:42 7 9 mph 1014.9mb 66f 63f
7:36 7 8 mph 1014.7mb 66f 64f
7:30 7 8 mph 1014.6mb 65f -
7:24 6 8 mph 1014.5mb 65f -
7:18 6 9 mph 1014.4mb 65f 63f
7:12 7 8 mph 1014.4mb 65f 64f
7:06 8 9 mph 1014.5mb 65f 64f
7:00 8 10 mph 1014.5mb 65f 64f
6:54 9
mph
1014.5mb 65f 64f
6:48 8 9 mph 1014.4mb 65f 64f
6:42 8 9 mph 1014.3mb 65f 64f
6:36 7 9 mph 1014.3mb 65f 64f
6:30 8 10 mph 1014.3mb 65f 63f
6:24 7 8 mph 1014.2mb 65f 64f
6:18 7 9 mph 1014.1mb 64f 64f
6:12 8 9 mph 1014.2mb 64f 63f
6:06 9 10 mph 1014.2mb 65f 63f
6:00 9 10 mph 1014.3mb 65f 63f
5:54 9 11 mph 1014.4mb 64f 63f
5:48 10 11 mph 1014.3mb 64f 63f
5:42 9 11 mph 1014.3mb 64f 64f
5:36 9 10 mph 1014.2mb 64f 64f
5:30 10 11 mph 1014.1mb 64f 64f
5:24 9 11 mph 1014.2mb 64f 64f
5:18 9 10 mph 1014.1mb 64f 64f
5:12 9 11 mph 1014mb 64f 64f
5:06 10 11 mph 1014mb 64f 64f
5:00 10 13 mph 1013.9mb 64f 64f
4:54 9 11 mph 1013.7mb 64f 64f
4:48 9 10 mph 1013.7mb 64f 64f
4:42 8 10 mph 1013.7mb 64f 64f
4:36 8 11 mph 1013.7mb 64f 64f
4:30 9 13 mph 1013.7mb 64f 64f
4:24 11 14 mph 1013.6mb 64f 64f
4:18 10 13 mph 1013.6mb 64f 64f
4:12 10 14 mph 1013.5mb 64f 64f
4:06 9 11 mph 1013.3mb 64f 64f
4:00 9 10 mph 1013.2mb 64f 64f
3:54 9 13 mph 1013.2mb 64f 64f
3:48 11 13 mph 1013.3mb 64f 64f
3:42 10 13 mph 1013.3mb 64f 64f
3:36 9 11 mph 1013.2mb 64f 64f
3:30 6 8 mph 1013.2mb 64f 64f
3:24 7 8 mph 1013.2mb 64f 64f
3:18 6 7 mph 1013.2mb 64f 64f
3:12 5 8 mph 1013.1mb 64f 64f
3:06 7 8 mph 1013.1mb 64f 64f
3:00 6 8 mph 1013.1mb 64f 63f
2:54 8 10 mph 1013.1mb 64f 63f
2:48 9
mph
1013mb 64f 63f
2:42 6 8 mph 1012.8mb 64f 64f
2:36 6 8 mph 1012.9mb 63f 64f
2:30 5 6 mph 1012.8mb 63f 64f
2:24 3 5 mph 1012.8mb 63f 64f
2:18 5 8 mph 1012.8mb 63f 63f
2:12 6 8 mph 1013mb 63f 63f
2:06 7 8 mph 1013mb 63f 63f
2:00 6 7 mph 1013mb 64f 63f
1:54 6 8 mph 1013mb 64f 63f
1:48 7
mph
1012.9mb 64f 63f
1:42 5 6 mph 1012.9mb 64f 63f
1:36 3 5 mph 1012.9mb 64f 63f
1:30 2
mph
1012.9mb 64f 63f
1:24 2 3 mph 1012.9mb 64f 63f
1:18 2 5 mph 1012.8mb 64f 62f
1:12 2 5 mph 1012.8mb 64f 62f
1:06 3 5 mph 1012.8mb 64f 62f
1:00 3 5 mph 1012.7mb 65f 62f
12:54 3 6 mph 1012.6mb 65f 61f
12:48 5 6 mph 1012.6mb 65f 62f
12:42 5 6 mph 1012.5mb 65f 62f
12:36 3 5 mph 1012.5mb 65f 62f
12:30 5 6 mph 1012.4mb 65f 61f
12:24 6 8 mph 1012.4mb 65f 61f
12:18 7 8 mph 1012.5mb 64f 61f
12:12 7 9 mph 1012.5mb 64f 61f
12:06 7 8 mph 1012.5mb 64f 61f
12:00 7 8 mph 1012.5mb 64f 61f
11:54 8 9 mph 1012.5mb 64f 61f
11:48 8 10 mph 1012.6mb 64f 62f
11:42 9 11 mph 1012.5mb 64f 61f
11:36 9 10 mph 1012.3mb 64f 62f
11:30 8 10 mph 1012.2mb 64f 62f
11:24 9 10 mph 1012.1mb 64f 62f
11:18 6 8 mph 1012mb 65f 62f
11:12 6 8 mph 1011.9mb 65f 62f
11:06 9 10 mph 1011.9mb 65f 62f
11:00 7 10 mph 1011.8mb 65f 62f
10:54 6 9 mph 1011.7mb 65f 62f
10:48 6 8 mph 1011.6mb 65f 63f
10:42 6 7 mph 1011.6mb 65f 63f
10:36 3 7 mph 1011.5mb 65f 63f
10:30 6 8 mph 1011.4mb 65f 62f
10:24 5 6 mph 1011.3mb 65f 62f
10:18 2 3 mph 1011.2mb 65f 62f
10:12 2 5 mph 1011.2mb 65f 62f
10:06 2 3 mph 1011.1mb 65f 62f
10:00  -  2 mph 1011mb 65f 62f
9:54  -  2 mph 1010.9mb 65f 62f
9:48 1 3 mph 1010.9mb 65f 62f
9:42 2 3 mph 1010.8mb 65f 62f
9:36 3 5 mph 1010.8mb 65f 61f
9:30 1 3 mph 1010.7mb 65f 61f
9:24 2 5 mph 1010.7mb 65f 61f
9:18 5
mph
1010.7mb 65f 61f
9:12 3 6 mph 1010.6mb 65f 61f
9:06 5 6 mph 1010.6mb 65f 61f
9:00 5 7 mph 1010.5mb 65f 61f
8:54 6 7 mph 1010.5mb 66f 60f
8:48 5 6 mph 1010.4mb 66f 61f
8:42 5 6 mph 1010.3mb 66f 61f
8:36 3 6 mph 1010.3mb 66f 60f
8:30 5 6 mph 1010.1mb 66f 60f
8:24 5 6 mph 1010.1mb 66f 60f
8:18 5 6 mph 1010mb 66f 60f
8:12 6
mph
1009.9mb 65f 60f
8:06 2 5 mph 1009.9mb 65f 60f
8:00 2 6 mph 1009.8mb 65f 60f
7:54 3 5 mph 1009.8mb 65f 60f
7:48 5 7 mph 1009.7mb 65f 60f
7:42 6
mph
1009.7mb 65f 60f
7:36 5 6 mph 1009.6mb 65f 60f
7:30 2 3 mph 1009.4mb 64f 60f
7:24  -  2 mph 1009.3mb 64f 59f
7:18  -  2 mph 1009.3mb 64f 59f
7:12 2 3 mph 1009.3mb 64f 59f
7:06 2 3 mph 1009.3mb 64f 59f
7:00 2 3 mph 1009.3mb 64f 59f
6:54 2 3 mph 1009.3mb 64f 59f
6:48 1 2 mph 1009.3mb 64f 59f
6:42 1 2 mph 1009.2mb 64f 59f
6:36  -  2 mph 1009.2mb 64f 59f
6:30 1 2 mph 1009.1mb 64f 59f
6:24  -  2 mph 1009mb 64f 59f
6:18 2
mph
1009mb 64f 58f
6:12 2 3 mph 1008.9mb 64f 59f
6:06 2 3 mph 1008.9mb 64f 59f
6:00 2 3 mph 1008.9mb 64f 59f
5:54 2 5 mph 1009mb 64f 59f
5:48 5 7 mph 1009mb 64f 59f
5:42 6 8 mph 1008.9mb 64f 59f
5:36 7 9 mph 1008.9mb 64f 59f
5:30 8 9 mph 1008.8mb 64f 59f
5:24 8 9 mph 1008.8mb 64f 59f
5:18 9 11 mph 1008.8mb 64f 59f
5:12 10 11 mph 1008.7mb 64f 59f
5:06 9 11 mph 1008.7mb 64f 59f
5:00 9 10 mph 1008.6mb 64f 59f
4:54 9 11 mph 1008.6mb 64f 59f
4:48 8 11 mph 1008.6mb 64f 59f
4:42 9 11 mph 1008.5mb 64f 60f
4:36 9 10 mph 1008.4mb 64f 60f
4:30 8 9 mph 1008.3mb 64f 60f
4:24 2 5 mph 1008.2mb 64f 60f
4:18 3 6 mph 1008.1mb 64f 60f
4:12 6 7 mph 1008mb 64f 60f
4:06 6 7 mph 1008mb 64f 60f
4:00 5 7 mph 1008.1mb 64f 60f
3:54 5 6 mph 1008mb 64f 59f
3:48 5 7 mph 1008mb 64f 59f
3:42 5 7 mph 1008mb 64f 60f
3:36 7 9 mph 1008mb 64f 59f
3:30 8 10 mph 1008mb 64f 60f
3:24 9 10 mph 1008mb 64f 60f
3:18 8 9 mph 1008mb 64f 60f
3:12 6 8 mph 1008mb 64f 60f
3:06 7 8 mph 1008.1mb 64f 60f
3:00 8 10 mph 1008.1mb 64f 60f
2:54 6 8 mph 1008.2mb 64f 60f
2:48 6 8 mph 1008.2mb 64f 60f
2:42 7 8 mph 1008.2mb 64f 60f
2:36 5 6 mph 1008.2mb 64f 60f
2:30 3 6 mph 1008.2mb 64f 60f
2:24 5 6 mph 1008.2mb 64f 60f
2:18 2 5 mph 1008.2mb 64f 60f
2:12 2 3 mph 1008.3mb 64f 60f
2:06 1
mph
1008.2mb 64f 61f
2:00 1 2 mph 1008.2mb 64f 61f
1:54 1 2 mph 1008.2mb 64f 61f
1:48 1 2 mph 1008.3mb 64f 61f
1:42 2
mph
1008.3mb 63f 61f
1:36 2 3 mph 1008.2mb 63f 61f
1:30 2
mph
1008.2mb 63f 61f
1:24 2 5 mph 1008.1mb 64f 61f
1:18 2 3 mph 1008mb 64f 60f
1:12  -  1 mph 1007.9mb 64f 60f
1:06 1 2 mph 1008mb 64f 60f
1:00  -  1 mph 1008mb 63f 60f
12:54 1 2 mph 1008mb 63f 60f
12:48 1 2 mph 1008mb 63f 60f
12:42  -  2 mph 1008mb 63f 60f
12:36 1 2 mph 1008mb 63f 60f
12:30 1 2 mph 1008mb 63f 60f
12:24 1 2 mph 1008.1mb 63f 60f
12:18  -  1 mph 1008.1mb 63f 60f
12:12  -  1 mph 1008.1mb 63f 60f
12:06 1 2 mph 1008.2mb 64f 60f
12:00 2
mph
1008.2mb 64f 60f
Mi 09/17 11:54 1 2 mph 1008.2mb 64f 60f
11:48 1 3 mph 1008.3mb 64f 60f
11:42 3 5 mph 1008.3mb 64f 60f
11:36 2 3 mph 1008.3mb 64f 60f
11:30 2 3 mph 1008.3mb 64f 60f
11:24 2
mph
1008.4mb 64f 60f
11:18 1 2 mph 1008.4mb 64f 60f
11:12 1
mph
1008.5mb 64f 60f
11:06  -  1 mph 1008.6mb 64f 60f
11:00  -  2 mph 1008.6mb 64f 60f
10:54 1 2 mph 1008.6mb 64f 60f
10:48 2
mph
1008.6mb 64f 60f
10:42 1 3 mph 1008.7mb 64f 60f
10:36 2 3 mph 1008.7mb 63f 60f
10:30 3 5 mph 1008.7mb 63f 60f
10:24 3 6 mph 1008.6mb 63f 60f
10:18 2 3 mph 1008.5mb 63f 60f
10:12 2 5 mph 1008.6mb 63f 60f
10:06 2 5 mph 1008.6mb 63f 60f
10:00 2 3 mph 1008.5mb 63f 61f
9:54 2 5 mph 1008.4mb 63f 61f
9:48 3
mph
1008.3mb 63f 61f
9:42 2 3 mph 1008.2mb 63f 61f
9:36 2 3 mph 1008.2mb 64f 61f
9:30 3
mph
1008.2mb 64f 62f
9:24 1 3 mph 1008mb 64f 62f
9:18 2 3 mph 1008mb 64f 62f
9:12 2 3 mph 1007.9mb 64f 62f
9:06 1 2 mph 1008mb 64f 62f
9:00  -  2 mph 1007.9mb 64f 62f
8:54 1 2 mph 1007.8mb 65f 61f
8:48 1 2 mph 1007.7mb 65f 62f
8:42 1 5 mph 1007.7mb 65f 62f
8:36 2 5 mph 1007.6mb 65f 61f
8:30 2 3 mph 1007.6mb 65f 61f
8:24 1 3 mph 1007.7mb 65f 61f
8:18 2 3 mph 1007.7mb 64f 61f
8:12 2 7 mph 1007.8mb 64f 61f
8:06 3 6 mph 1007.6mb 64f 61f
8:00 5 9 mph 1007.2mb 64f 61f
7:54 8 17 mph 1007mb 64f 62f
7:48 14 16 mph 1006.9mb 64f 62f
7:42 3 6 mph 1007.4mb 64f 62f
7:36 3 6 mph 1007.7mb 64f 62f
7:30 5 8 mph 1008mb 64f 61f
7:24 6 8 mph 1007.8mb 64f 61f
7:18 3 5 mph 1008.4mb 64f 61f
7:12 5 6 mph 1008.7mb 65f 61f
7:06 6 7 mph 1008.9mb 65f 61f
7:00 6 8 mph 1008.9mb 66f 61f
6:54 8 9 mph 1009mb 66f 61f
6:48 6 8 mph 1008.9mb 66f 61f
6:42 6 10 mph 1009.1mb 66f 61f
6:36 9 11 mph 1009.1mb 66f 61f
6:30 8 11 mph 1009mb 66f 61f
6:24 10 11 mph 1009.2mb 66f 60f
6:18 8 11 mph 1009.3mb 66f 61f
6:12 6 11 mph 1009.4mb 65f 61f
6:06 6 14 mph 1009.4mb 65f 61f
6:00 10 15 mph 1009.3mb 65f 61f
5:54 11 14 mph 1009mb 65f 62f
5:48 9 16 mph 1008.7mb 65f 61f
5:42 15 17 mph 1008.5mb 65f 61f
5:36 8 11 mph 1008.5mb 65f 62f
5:30 8 13 mph 1008.3mb 64f 62f
5:24 8 15 mph 1008.2mb 64f 62f
5:18 8 15 mph 1008.1mb 64f 62f
5:12 8 15 mph 1008mb 65f 62f
5:06 10 13 mph 1007.8mb 64f 63f
5:00 9 15 mph 1007.9mb 64f 64f
4:54 9 14 mph 1007.9mb 63f 65f
4:48 11 14 mph 1007.8mb 63f 64f
4:42 11 13 mph 1007.6mb 65f 64f
4:36 8 11 mph 1007.3mb 65f 65f
4:30 8 14 mph 1007.5mb 65f 66f
4:24 9 13 mph 1007.5mb 65f 66f
4:18 10 11 mph 1007.5mb 65f 66f
4:12 9 11 mph 1007.2mb 65f 65f
4:06 10 11 mph 1006.9mb 64f 65f
4:00 8 10 mph 1006.8mb 64f 65f
3:54 7 8 mph 1006.7mb 64f 66f
3:48 6 8 mph 1006.9mb 64f 66f
3:42 7 9 mph 1007.1mb 64f 66f
3:36 8 9 mph 1007.1mb 64f 66f
3:30 8 9 mph 1007.1mb 65f 66f
3:24 8 10 mph 1007.2mb 65f 66f
3:18 8 9 mph 1007.3mb 65f 66f
3:12 9 10 mph 1007.4mb 65f 66f
3:06 6 8 mph 1007.5mb 64f 66f
3:00 6 8 mph 1007.5mb 64f 66f
2:54 8 9 mph 1007.3mb 64f 66f
2:48 7 10 mph 1007.3mb 64f 66f
2:42 7 8 mph 1007.3mb 64f 66f
2:36 6 8 mph 1007.3mb 64f 66f
2:30 8 11 mph 1007.4mb 64f 66f
2:24 9 11 mph 1007.3mb 64f 65f
2:18 9 10 mph 1007.3mb 64f 65f
2:12 6 8 mph 1007.4mb 64f 65f
2:06 7 8 mph 1007.4mb 64f 65f
2:00 8 13 mph 1007.3mb 64f 65f
1:54 13 14 mph 1007.4mb 64f 65f
1:48 9 10 mph 1007.5mb 64f 65f
1:42 9 11 mph 1007.3mb 64f 65f
1:36 6 8 mph 1007mb 64f 65f
1:30 7 9 mph 1007.1mb 64f 64f
1:24 9 10 mph 1007.2mb 64f 64f
1:18 7 8 mph 1007.2mb 64f 64f
1:12 8 9 mph 1007mb 64f 64f
1:06 8 10 mph 1007mb 64f 64f
1:00 9 11 mph 1007.1mb 64f 64f
12:54 11 13 mph 1007.2mb 64f 64f
12:48 8 11 mph 1007.2mb 64f 64f
12:42 8 9 mph 1007.2mb 64f 64f
12:36 7 8 mph 1007.6mb 65f 65f
12:30 3
mph
1007.4mb 65f 66f
12:24 2
mph
1007.1mb 65f 66f
12:18  -  1 mph 1007.1mb 65f 66f
12:12  -  1 mph 1007.1mb 65f 66f
12:06  -  5 mph 1007.2mb 65f 66f
12:00 5 8 mph 1007.7mb 65f 65f
11:54 6 8 mph 1007.8mb 65f 64f
11:48 6 9 mph 1007.4mb 65f 65f
11:42 1 8 mph 1006.7mb 65f 64f
11:36 6 9 mph 1006.6mb 65f 64f
11:30 5 6 mph 1007.3mb 65f 63f
11:24 6 7 mph 1007.6mb 65f 63f
11:12 2 6 mph 1007.3mb 64f 64f
11:06 3 9 mph 1007.4mb 64f 63f
11:00 5 7 mph 1007.4mb 64f 63f
10:54  -  3 mph 1007.8mb 64f 63f
10:48 1 2 mph 1008mb 64f 63f
10:42 1 3 mph 1008.1mb 64f 62f
10:36 3 6 mph 1008.2mb 65f 62f
10:30 5 6 mph 1008mb 65f 62f
10:24 5 7 mph 1008mb 65f 62f
10:18 6 8 mph 1007.9mb 65f 62f
10:12 6 7 mph 1007.9mb 65f 62f
10:06 6 7 mph 1008mb 65f 62f
10:00 5 7 mph 1008.2mb 65f 62f
9:54 6
mph
1008.4mb 65f 61f
9:48 5 6 mph 1008.4mb 65f 62f
9:42 3 6 mph 1008.5mb 65f 62f
9:36 3 6 mph 1008.5mb 66f 62f
9:30 3 5 mph 1008.4mb 66f 62f
9:24 2 5 mph 1008.4mb 66f 61f
9:18 3 5 mph 1008.5mb 66f 61f
9:12  -  3 mph 1008.5mb 66f 61f
9:06 2 5 mph 1008.5mb 66f 61f
9:00 3 8 mph 1008.5mb 66f 61f
8:54 5 7 mph 1008.4mb 66f 61f
8:48 5 6 mph 1008.4mb 66f 61f
8:42 5 8 mph 1008.4mb 66f 60f
8:36 7 11 mph 1008.4mb 66f 60f
8:30 8 11 mph 1008.1mb 66f 61f
8:24 6 8 mph 1008.4mb 66f 61f
8:18  -  3 mph 1008.4mb 66f 61f
8:12 3 7 mph 1008.5mb 66f 61f
8:06 6 8 mph 1008.4mb 66f 61f
8:00 6 10 mph 1007.8mb 66f 60f
7:54 7 8 mph 1007.9mb 66f 61f
7:48 3 5 mph 1008.3mb 66f 61f
7:42 2 3 mph 1008.5mb 66f 60f
7:36 1 2 mph 1008.7mb 66f 60f
7:30 1 2 mph 1008.8mb 66f 60f
7:24  -  1 mph 1008.8mb 66f 60f
7:18 1 2 mph 1008.9mb 66f 60f
7:12 1 2 mph 1008.9mb 66f 60f
7:06 2 5 mph 1008.9mb 66f 60f
7:00 3 5 mph 1008.9mb 66f 60f
6:54 5 6 mph 1008.9mb 66f 60f
6:48 5 6 mph 1008.8mb 66f 60f
6:42  -  2 mph 1008.4mb 66f 60f
6:36  -  1 mph 1008.3mb 66f 60f
6:30 1
mph
1008.3mb 66f 60f
6:24  -  3 mph 1008.4mb 65f 60f
6:18 2 5 mph 1008.4mb 65f 60f
6:12 2 3 mph 1008.4mb 65f 60f
6:06 3 6 mph 1008.2mb 65f 60f
6:00 3 6 mph 1008.2mb 65f 60f
5:54 5 6 mph 1008.3mb 65f 60f
5:48 3 6 mph 1008.5mb 65f 60f
5:42 5 6 mph 1008.6mb 65f 60f
5:36 6 7 mph 1008.7mb 65f 60f
5:30 6 7 mph 1008.8mb 64f 60f
5:24 5 7 mph 1008.9mb 64f 60f
5:18 5 6 mph 1008.9mb 64f 60f
5:12 2 5 mph 1009mb 64f 60f
5:06 3 6 mph 1009.1mb 64f 60f
5:00 5 7 mph 1009mb 64f 60f
4:54 5 6 mph 1009mb 64f 60f
4:48 5 6 mph 1009.1mb 64f 60f
4:42 3 5 mph 1009.2mb 64f 60f
4:36 3 5 mph 1009.2mb 65f 60f
4:30 2 5 mph 1009.3mb 65f 60f
4:24 2
mph
1009.3mb 65f 60f
4:18 1 2 mph 1009.4mb 65f 60f
4:12 1 2 mph 1009.4mb 65f 60f
4:06 2
mph
1009.5mb 65f 60f
4:00 1 2 mph 1009.6mb 65f 61f
3:54 2
mph
1009.7mb 65f 61f
3:48 2
mph
1009.8mb 65f 61f
3:42  -  3 mph 1009.7mb 65f 61f
3:36 2 6 mph 1009.7mb 65f 61f
3:30 5 8 mph 1009.8mb 64f 61f
3:24  -  5 mph 1009.9mb 64f 61f
3:18 3 5 mph 1009.9mb 64f 61f
3:12 2 3 mph 1009.8mb 64f 61f
3:06 2 3 mph 1010mb 64f 61f
3:00 2 3 mph 1010mb 64f 61f
2:54  -  2 mph 1010.1mb 64f 61f
2:48 1 2 mph 1010.2mb 64f 61f
2:42  -  3 mph 1010.3mb 64f 61f
2:36 1 3 mph 1010.3mb 64f 62f
2:30 2 5 mph 1010.3mb 64f 62f
2:24 3 5 mph 1010.4mb 64f 62f
2:18 1 2 mph 1010.4mb 64f 62f
2:12 2
mph
1010.5mb 64f 62f
2:06 1 2 mph 1010.7mb 64f 62f
2:00 2 3 mph 1010.8mb 64f 62f
1:54 2 3 mph 1010.9mb 64f 62f
1:48 1 3 mph 1010.9mb 64f 62f
1:42 2 5 mph 1011mb 64f 62f
1:36 3 6 mph 1011.1mb 64f 62f
1:30 5 6 mph 1011.1mb 64f 62f
1:24 3 6 mph 1011.2mb 64f 62f
1:18 1 2 mph 1011.2mb 64f 62f
1:12 1 2 mph 1011.2mb 64f 62f
1:06  -  3 mph 1011.3mb 64f 62f
1:00 2 3 mph 1011.4mb 64f 62f
12:54 3 5 mph 1011.4mb 64f 62f
12:48 1 3 mph 1011.3mb 64f 62f
12:42 2
mph
1011.3mb 64f 62f
12:36 1 2 mph 1011.4mb 64f 62f
12:30 1 3 mph 1011.5mb 64f 62f
12:24 3 7 mph 1011.4mb 64f 62f
12:18 2 6 mph 1011.3mb 64f 62f
12:12 3 7 mph 1011.3mb 63f 62f
12:06 3 7 mph 1011.3mb 63f 62f
12:00 5 7 mph 1011.4mb 62f 62f
Di 09/16 11:54 3 7 mph 1011.4mb 64f 62f
11:48 2 3 mph 1011.5mb 64f 62f
11:42 2
mph
1011.6mb 64f 62f
11:36 1 2 mph 1011.7mb 64f 61f
11:30 1 2 mph 1011.7mb 64f 61f
11:24 1 2 mph 1011.8mb 64f 62f
11:18  -  3 mph 1011.8mb 64f 62f
11:12 2
mph
1011.8mb 64f 62f
11:06 2 3 mph 1011.9mb 64f 62f
11:00 2 3 mph 1011.9mb 64f 62f
10:54 5 6 mph 1011.9mb 64f 62f
10:48 2 5 mph 1011.9mb 64f 62f
10:42 3 5 mph 1011.7mb 64f 63f
10:36 3 5 mph 1012.2mb 64f 62f
10:30 5
mph
1012.1mb 64f 62f
10:24 3
mph
1012.1mb 65f 63f
10:18  -  1 mph 1012mb 65f 63f